Location: Unspecified
(0.0000°N, 0.0000°E)
Time: 06:12:51
(UTC+00:00)

LightSail 2 - Visible Passes

Search period start: 27 May 2020 00:00
Search period end: 06 June 2020 00:00
Orbit: 696 x 719 km, 24.0° (Epoch: 26 May)

Date Brightness Start Highest point End Pass type
(mag) Time Alt. Az. Time Alt. Az. Time Alt. Az.
31 May 6.8 18:59:05 10° SSW 19:01:57 15° SSE 19:02:21 15° SSE visible
01 Jun 6.5 19:43:07 10° SW 19:45:44 25° SSW 19:45:44 25° SSW visible
02 Jun 6.3 18:43:44 10° SSW 18:47:49 24° SSE 18:50:20 17° ESE visible
02 Jun 7.5 20:28:11 10° WSW 20:29:13 16° WSW 20:29:13 16° WSW visible
03 Jun 7.9 05:23:01 10° N 05:24:50 12° NNE 05:26:39 10° NE visible
03 Jun 5.0 19:28:25 10° SW 19:33:25 60° SSE 19:33:56 56° SE visible
04 Jun 5.6 18:28:48 10° SW 18:33:33 40° SSE 18:38:16 10° E visible
04 Jun 6.3 20:14:01 10° W 20:17:38 40° WNW 20:17:38 40° WNW visible
05 Jun 7.7 05:07:09 10° NNW 05:10:41 18° NNE 05:14:14 10° ENE visible
05 Jun 5.1 19:13:59 10° WSW 19:19:04 78° NNW 19:22:29 21° ENE visible
05 Jun 8.0 21:00:45 10° WNW 21:01:23 12° WNW 21:01:23 12° WNW visible
